User: anonymous   Login
Location: Huppendorf
(49.9333°N, 11.1500°E)
Time: 07:32:31
(UTC+00:00)
Language:

STARLINK-80 - Orbit

View from above orbital plane
View from above orbital plane
View from above satellite
View from above satellite

Ground track
Ground track

The orbit data is extracted from the following two-line orbital elements,

1 44282U 19029AZ  20156.71017731 +.00003033 +00000-0 +13232-3 0  9995
2 44282 053.0203 232.2708 0003928 178.0325 182.0688 15.25276381056089
Epoch (UTC): 04 June 2020 17:02:39
Eccentricity: 0.0003928
inclination: 53.0203°
perigee height: 487 km
apogee height: 492 km
right ascension of ascending node: 232.2708°
argument of perigee: 178.0325°
revolutions per day: 15.25276381
mean anomaly at epoch: 182.0688°
orbit number at epoch: 5608

The dashed part of the orbit path shows where the satellite is in the earth's shadow,  

DLR